Location: Quebec
(46.8000°N, 71.2500°W)
Time: 19:43:57
(UTC-04:00)

Vanguard 1 - Visible Passes

Search period start: 19 October 2017 00:00
Search period end: 29 October 2017 00:00
Orbit: 650 x 3834 km, 34.3° (Epoch: 18 October)

Date Brightness Start Highest point End Pass type
(mag) Time Alt. Az. Time Alt. Az. Time Alt. Az.
19 Oct 13.2 01:10:35 33° ESE 01:10:35 33° ESE 01:22:53 10° E visible
19 Oct 12.6 03:23:18 53° SSW 03:27:01 57° S 03:49:35 10° ESE visible
19 Oct 13.2 05:36:01 19° W 05:52:06 51° SSW 06:13:07 10° SE visible
20 Oct 13.1 01:30:23 38° ESE 01:30:23 38° ESE 01:44:32 10° E visible
20 Oct 12.6 03:43:05 49° SW 03:48:12 57° S 04:10:47 10° ESE visible
20 Oct 13.3 05:55:48 15° W 06:13:07 46° SSW 06:33:32 10° SE visible
20 Oct 14.0 23:37:29 10° E 23:37:29 10° E 23:37:44 10° E visible
21 Oct 12.9 01:50:12 44° SE 01:50:12 44° SE 02:06:05 10° E visible
21 Oct 12.6 04:02:54 45° SW 04:09:23 56° S 04:31:51 10° ESE visible
21 Oct 13.4 06:15:37 11° W 06:34:03 41° SSW 06:53:40 10° SSE visible
21 Oct 13.8 23:57:19 14° E 23:57:19 14° E 23:59:49 10° E visible
22 Oct 12.8 02:10:02 49° SE 02:10:02 49° SE 02:27:33 10° E visible
22 Oct 12.7 04:22:45 39° WSW 04:30:34 53° SSW 04:52:45 10° SE visible
22 Oct 13.5 06:36:48 10° W 06:54:50 35° SW 07:13:24 10° SSE visible
23 Oct 13.7 00:17:12 18° E 00:17:12 18° E 00:21:39 10° E visible
23 Oct 12.7 02:29:55 52° SSE 02:29:55 52° SSE 02:48:55 10° ESE visible
23 Oct 12.8 04:42:38 34° WSW 04:51:43 49° SSW 05:13:27 10° SE visible
24 Oct 13.6 00:37:06 22° ESE 00:37:06 22° ESE 00:43:19 10° E visible
24 Oct 12.6 02:49:50 54° SSE 02:49:50 54° SSE 03:10:10 10° ESE visible
24 Oct 12.9 05:02:33 29° WSW 05:12:47 45° SSW 05:33:52 10° SE visible
25 Oct 13.4 00:57:03 26° ESE 00:57:03 26° ESE 01:04:53 10° E visible
25 Oct 12.6 03:09:47 53° S 03:09:47 53° S 03:31:18 10° ESE visible
25 Oct 13.1 05:22:30 24° WSW 05:33:46 39° SSW 05:53:59 10° SSE visible
26 Oct 13.3 01:17:02 30° ESE 01:17:02 30° ESE 01:26:22 10° E visible
26 Oct 12.6 03:29:46 50° SSW 03:30:40 51° SSW 03:52:14 10° SE visible
26 Oct 13.2 05:42:30 19° WSW 05:54:40 34° SSW 06:13:40 10° SSE visible
27 Oct 13.2 01:37:04 33° ESE 01:37:04 33° ESE 01:47:46 10° ESE visible
27 Oct 12.6 03:49:48 46° SSW 03:51:47 47° SSW 04:12:57 10° SE visible
27 Oct 13.3 06:02:32 14° W 06:15:29 28° SW 06:32:50 10° S visible
28 Oct 13.1 01:57:07 36° SE 01:57:07 36° SE 02:09:03 10° ESE visible
28 Oct 12.7 04:09:52 40° SW 04:12:53 42° SSW 04:33:22 10° SE visible
28 Oct 13.5 06:22:50 10° W 06:36:13 22° SW 06:51:13 10° S visible
